User: anonymous   Login
Location: Capannuccia
(43.7000°N, 11.3000°E)
Time: 01:14:26
(UTC+00:00)
Language:

STARLINK-2688 - Orbit

View from above orbital plane
View from above orbital plane
View from above satellite
View from above satellite

Ground track
Ground track

The orbit data is extracted from the following two-line orbital elements,

1 48660C 21044Y   21293.82984341  .00004861  00000-0  32567-3 0  2933
2 48660  53.0537 108.1495 0001662  78.5300 250.1795 15.06394289    12
Epoch (UTC): 20 October 2021 19:54:58
Eccentricity: 0.0001662
inclination: 53.0537°
perigee height: 546 km
apogee height: 548 km
right ascension of ascending node: 108.1495°
argument of perigee: 78.5300°
revolutions per day: 15.06394289
mean anomaly at epoch: 250.1795°
orbit number at epoch: 1

The dashed part of the orbit path shows where the satellite is in the earth's shadow,  

DLR